スペースウォッチ彗星

361P/Spacewatch (2018)

English version
Home page
Updated on May 20, 2019

---------------------------------------------------------------------

・ プロフィール

符号 361P/2017 S4
検出日 2017年9月24日
検出光度 18.9等
検出者 Pan-STARRS 1 telescope (Haleakala)

・ 写真集

・ 軌道要素

Epoch 2018 July 21.0 TT = JDT 2458320.5
T 2018 July 2.50315 TT                                  MPCW
q   2.7803071            (2000.0)            P               Q
n   0.08959260     Peri.  219.21313     +0.46919751     -0.87798846
a   4.9463853      Node   203.27710     +0.85851762     +0.47865667
e   0.4379113      Incl.   13.88245     +0.20688450     +0.00490521
P  11.00
From 356 observations 2006 Oct. 11-2019 Mar. 29, mean residual 0".5.
     Nongravitational parameters Y1 = -1.08, Y2 = +0.4173.

・ 光度変化

        m1 = 6.0 + 5 logΔ + 20.0 log r

---------------------------------------------------------------------

軌道要素はM.P.E.C. 2019-J142に掲載されたものです。
光度グラフはComet for Windowsで作成したものです。

---------------------------------------------------------------------

Copyright(C) Seiichi Yoshida (comet@aerith.net). All rights reserved.